FW7712 Weather Reports


time (UTC)temp
C
wind
direction
speed
KPH
gust
KPH
rain 1hr
cm
rain 24hr
cm
rain mn
cm
humidity
%
barometer
mb
20260505113519 27 113 6.4 11.3 0.00 0.08 0.00 82 1017.0
20260505113032 27 112 6.4 11.3 0.00 0.08 0.00 82 1017.1
20260505112517 27 125 4.8 11.3 0.00 0.08 0.00 82 1017.0
20260505112018 27 98 6.4 12.9 0.00 0.08 0.00 82 1017.0
20260505111538 27 136 6.4 14.5 0.00 0.08 0.00 83 1016.7
20260505111017 27 108 4.8 14.5 0.00 0.08 0.00 84 1016.8
20260505110517 26 130 4.8 14.5 0.00 0.08 0.00 84 1016.8
20260505102017 24 0 0.0 0.0 0.00 0.08 0.00 92 1016.6
20260505101536 24 0 0.0 0.0 0.00 0.08 0.00 92 1016.6
20260505101017 24 0 0.0 0.0 0.00 0.08 0.00 92 1016.4
20260505100518 24 0 0.0 0.0 0.00 0.08 0.00 92 1016.3
20260505100036 24 0 0.0 0.0 0.00 0.08 0.00 92 1016.3
20260505095517 24 0 0.0 0.0 0.00 0.08 0.00 91 1016.3
20260505095019 24 0 0.0 0.0 0.00 0.08 0.00 91 1016.3
20260505094532 24 0 0.0 0.0 0.00 0.08 0.00 91 1016.3
20260505094017 23 0 0.0 0.0 0.00 0.08 0.00 91 1016.4
20260505093518 24 0 0.0 0.0 0.00 0.08 0.00 91 1016.4
20260505093037 24 0 0.0 0.0 0.00 0.08 0.00 91 1016.4
20260505092519 24 0 0.0 0.0 0.00 0.08 0.00 91 1016.4
20260505092017 24 0 0.0 0.0 0.00 0.08 0.00 91 1016.3
20260505091533 24 0 0.0 0.0 0.00 0.08 0.00 91 1016.2
20260505091019 24 0 0.0 0.0 0.00 0.08 0.00 91 1016.2
20260505090517 24 0 0.0 0.0 0.00 0.08 0.00 91 1016.2
20260505090031 24 0 0.0 0.0 0.00 0.08 0.00 91 1016.1
20260505085517 24 0 0.0 0.0 0.00 0.08 0.00 91 1016.2
20260505085017 24 0 0.0 0.0 0.00 0.08 0.00 91 1016.1
20260505084532 24 0 0.0 0.0 0.00 0.08 0.00 91 1016.2
20260505084019 24 0 0.0 0.0 0.00 0.08 0.00 91 1016.1
20260505083516 24 0 0.0 0.0 0.00 0.08 0.00 91 1016.0
20260505083035 24 0 0.0 0.0 0.00 0.08 0.00 91 1016.1
20260505082517 24 0 0.0 0.0 0.00 0.08 0.00 90 1016.0
20260505082017 24 0 0.0 0.0 0.00 0.08 0.00 90 1016.0
20260505081537 24 0 0.0 0.0 0.00 0.08 0.00 90 1015.9
20260505081017 24 0 0.0 0.0 0.00 0.08 0.00 90 1016.0
20260505080517 24 0 0.0 0.0 0.00 0.08 0.00 90 1016.0
20260505080034 24 0 0.0 0.0 0.00 0.08 0.00 90 1015.8
20260505075516 24 0 0.0 0.0 0.00 0.08 0.00 89 1015.8
20260505075019 25 0 0.0 0.0 0.00 0.08 0.00 89 1015.8
20260505074532 25 0 0.0 0.0 0.00 0.08 0.00 88 1015.8
20260505074017 25 0 0.0 0.0 0.00 0.08 0.00 87 1015.9
20260505073517 25 0 0.0 0.0 0.00 0.08 0.00 86 1015.8
20260505073034 25 0 0.0 0.0 0.00 0.08 0.00 85 1015.6
20260505072521 26 0 0.0 0.0 0.00 0.08 0.00 85 1015.7
20260505072019 26 0 0.0 0.0 0.00 0.08 0.00 85 1015.7
20260505071530 26 0 0.0 0.0 0.00 0.08 0.00 85 1015.7
20260505071017 26 0 0.0 0.0 0.00 0.08 0.00 85 1015.7
20260505070521 26 0 0.0 0.0 0.00 0.08 0.00 85 1015.7
20260505070037 26 0 0.0 0.0 0.00 0.08 0.00 85 1015.8
20260505065520 26 0 0.0 0.0 0.00 0.08 0.00 85 1015.6
20260505065016 26 0 0.0 0.0 0.00 0.08 0.00 85 1015.8
20260505064535 26 0 0.0 0.0 0.00 0.08 0.00 85 1015.8
20260505064016 26 0 0.0 0.0 0.00 0.08 0.00 85 1015.9
20260505063516 26 0 0.0 0.0 0.00 0.08 0.00 85 1015.8
20260505063032 26 0 0.0 0.0 0.00 0.08 0.00 85 1015.9
20260505062521 26 0 0.0 0.0 0.00 0.08 0.00 85 1015.9
20260505062016 26 0 0.0 0.0 0.00 0.08 0.00 85 1015.9
20260505061549 26 0 0.0 0.0 0.00 0.08 0.00 85 1015.9
20260505061017 26 0 0.0 0.0 0.00 0.08 0.00 85 1016.0
20260505060521 26 0 0.0 0.0 0.00 0.08 0.00 85 1016.1
20260505060036 26 0 0.0 0.0 0.00 0.08 0.00 85 1016.1
20260505055520 26 0 0.0 0.0 0.00 0.08 0.00 85 1016.3
20260505055017 26 0 0.0 0.0 0.00 0.08 0.00 85 1016.4
20260505054536 26 0 0.0 0.0 0.00 0.08 0.00 85 1016.4
20260505054018 26 0 0.0 0.0 0.00 0.08 0.00 85 1016.5
20260505053516 26 0 0.0 0.0 0.00 0.08 0.00 85 1016.5
20260505053041 26 0 0.0 0.0 0.00 0.08 0.00 85 1016.6
20260505052516 26 0 0.0 0.0 0.00 0.08 0.00 85 1016.7
20260505052017 26 0 0.0 0.0 0.00 0.08 0.00 85 1016.7
20260505051554 26 0 0.0 0.0 0.00 0.08 0.00 86 1016.7
20260505051021 26 0 0.0 0.0 0.00 0.08 0.00 86 1016.7
20260505050517 26 0 0.0 0.0 0.00 0.08 0.00 87 1016.7
20260505041533 26 0 0.0 0.0 0.00 0.08 0.00 84 1017.1
20260505041016 26 0 0.0 0.0 0.00 0.08 0.00 84 1017.1
20260505040516 26 0 0.0 1.6 0.00 0.08 0.00 84 1017.1
20260505040035 26 0 0.0 1.6 0.00 0.08 0.00 85 1017.2
20260505035516 26 0 0.0 1.6 0.00 0.08 0.08 85 1017.3
20260505035017 26 0 0.0 0.0 0.00 0.08 0.08 86 1017.3
20260505034532 26 0 0.0 0.0 0.00 0.08 0.08 87 1017.4
20260505034016 26 0 0.0 0.0 0.00 0.08 0.08 87 1017.4
20260505033517 26 0 0.0 0.0 0.00 0.08 0.08 88 1017.5
20260505033031 25 0 0.0 0.0 0.00 0.08 0.08 88 1017.5
20260505032516 25 0 0.0 0.0 0.00 0.08 0.08 89 1017.4
20260505032015 25 0 0.0 0.0 0.00 0.08 0.08 89 1017.3
20260505031532 25 0 0.0 0.0 0.00 0.08 0.08 90 1017.4
20260505031016 25 0 0.0 0.0 0.00 0.08 0.08 89 1017.4
20260505030517 25 0 0.0 0.0 0.00 0.08 0.08 89 1017.3
20260505030035 25 0 0.0 0.0 0.00 0.08 0.08 89 1017.3
20260505025517 25 0 0.0 0.0 0.00 0.08 0.08 89 1017.3
20260505025016 25 0 0.0 0.0 0.00 0.08 0.08 88 1017.4
20260505024533 26 0 0.0 0.0 0.00 0.08 0.08 88 1017.3
20260505024016 26 0 0.0 0.0 0.00 0.08 0.08 87 1017.3
20260505023516 26 0 0.0 0.0 0.00 0.08 0.08 86 1017.3
20260505023031 26 0 0.0 0.0 0.00 0.08 0.08 87 1017.3
20260505022516 26 0 0.0 0.0 0.00 0.08 0.08 87 1017.3
20260505022017 26 0 0.0 0.0 0.00 0.08 0.08 87 1017.4
20260505021530 26 0 0.0 0.0 0.00 0.08 0.08 87 1017.4
20260505021016 26 0 0.0 0.0 0.00 0.08 0.08 87 1017.3
20260505020517 26 0 0.0 0.0 0.03 0.08 0.08 87 1017.4
20260505020030 26 0 0.0 0.0 0.05 0.08 0.08 87 1017.3
20260505015514 26 0 0.0 0.0 0.05 0.08 0.08 89 1017.3
20260505015014 26 0 0.0 0.0 0.05 0.08 0.08 88 1017.3
20260505014532 26 0 0.0 0.0 0.05 0.08 0.08 88 1017.2
20260505014019 26 0 0.0 0.0 0.05 0.08 0.08 88 1017.1
20260505013515 26 0 0.0 0.0 0.05 0.08 0.08 87 1017.0
20260505013032 26 0 0.0 0.0 0.05 0.08 0.08 86 1017.1
20260505012514 26 0 0.0 0.0 0.05 0.08 0.08 85 1017.0
20260505012014 27 0 0.0 0.0 0.05 0.08 0.08 84 1016.8
20260505011533 27 0 0.0 0.0 0.05 0.08 0.08 84 1016.7
20260505011014 27 0 0.0 0.0 0.05 0.08 0.08 85 1016.6
20260505010517 27 0 0.0 0.0 0.03 0.05 0.05 84 1016.6
20260505010036 26 0 0.0 0.0 0.00 0.03 0.03 85 1016.5
20260505005517 26 0 0.0 0.0 0.00 0.03 0.03 84 1016.4
20260505005014 26 0 0.0 0.0 0.00 0.03 0.03 85 1016.4
20260505004535 26 0 0.0 0.0 0.00 0.03 0.03 84 1016.4
20260505004016 26 0 0.0 0.0 0.00 0.03 0.03 84 1016.3
20260505003521 26 0 0.0 0.0 0.00 0.03 0.03 84 1016.3
20260505003032 26 0 0.0 0.0 0.00 0.03 0.03 84 1016.5
20260505002518 26 0 0.0 0.0 0.00 0.03 0.03 85 1016.6
20260505002014 26 0 0.0 0.0 0.00 0.03 0.03 85 1016.6
20260505001534 26 0 0.0 0.0 0.00 0.03 0.03 85 1016.5
20260505001014 26 0 0.0 0.0 0.00 0.03 0.03 85 1016.6
20260505000514 26 0 0.0 0.0 0.00 0.03 0.03 85 1016.6
20260505000036 26 0 0.0 0.0 0.00 0.03 0.03 85 1016.6
20260504235514 26 0 0.0 0.0 0.00 0.03 0.03 85 1016.4
20260504235015 26 0 0.0 0.0 0.00 0.03 0.03 84 1016.4
20260504234535 26 0 0.0 0.0 0.00 0.03 0.03 84 1016.4
20260504234014 26 0 0.0 0.0 0.00 0.03 0.03 84 1016.3
20260504233514 26 0 0.0 0.0 0.00 0.03 0.03 83 1016.3
20260504233043 26 0 0.0 0.0 0.00 0.03 0.03 83 1016.3
20260504232515 26 0 0.0 0.0 0.00 0.03 0.03 82 1016.3
20260504232016 27 0 0.0 0.0 0.00 0.03 0.03 82 1016.1
20260504231542 27 0 0.0 0.0 0.00 0.03 0.03 81 1016.0
20260504231014 27 0 0.0 0.0 0.00 0.03 0.03 81 1016.1
20260504230517 27 0 0.0 0.0 0.00 0.03 0.03 80 1016.0
20260504230046 27 0 0.0 0.0 0.00 0.03 0.03 80 1015.9
20260504225519 27 0 0.0 0.0 0.00 0.03 0.03 79 1015.9
20260504225013 27 0 0.0 0.0 0.00 0.03 0.03 79 1016.0
20260504224533 27 0 0.0 0.0 0.00 0.03 0.03 79 1015.8
20260504224016 27 0 0.0 4.8 0.00 0.03 0.03 79 1015.7
20260504223514 27 0 0.0 4.8 0.00 0.03 0.03 79 1015.6
20260504223034 27 0 0.0 4.8 0.00 0.03 0.03 79 1015.5
20260504222513 27 0 0.0 0.0 0.00 0.03 0.03 79 1015.4
20260504222015 27 0 0.0 9.7 0.00 0.03 0.03 79 1015.3
20260504221530 27 0 1.6 9.7 0.00 0.03 0.03 79 1015.3
20260504221014 27 0 1.6 12.9 0.00 0.03 0.03 78 1015.3
20260504220518 28 0 1.6 12.9 0.00 0.03 0.03 78 1015.3
20260504220030 28 0 0.0 12.9 0.00 0.03 0.03 77 1015.1
20260504215514 28 0 0.0 12.9 0.00 0.03 0.03 76 1014.9
20260504215013 28 0 3.2 12.9 0.00 0.03 0.03 75 1015.0
20260504214530 28 0 0.0 6.4 0.00 0.03 0.03 76 1015.0
20260504214016 28 0 0.0 6.4 0.00 0.03 0.03 76 1014.9
20260504213513 28 0 0.0 1.6 0.00 0.03 0.03 75 1014.9
20260504213030 28 0 0.0 4.8 0.00 0.03 0.03 76 1014.8
20260504212521 28 0 0.0 12.9 0.00 0.03 0.03 76 1014.8
20260504212015 28 0 1.6 12.9 0.00 0.03 0.03 75 1014.8
20260504211537 28 0 0.0 9.7 0.00 0.03 0.03 74 1014.7
20260504211014 28 153 1.6 9.7 0.00 0.03 0.03 74 1014.5
20260504210514 28 0 0.0 9.7 0.00 0.03 0.03 75 1014.6
20260504210039 28 0 0.0 8.0 0.03 0.03 0.03 76 1014.7
20260504205514 28 143 1.6 12.9 0.03 0.03 0.03 76 1014.6
20260504205013 28 0 4.8 12.9 0.03 0.03 0.03 76 1014.5
20260504204540 27 107 4.8 12.9 0.03 0.03 0.03 76 1014.5
20260504204016 27 130 4.8 12.9 0.03 0.03 0.03 77 1014.6
20260504203514 27 126 6.4 17.7 0.03 0.03 0.03 79 1014.7
20260504203050 27 108 8.0 17.7 0.03 0.03 0.03 80 1014.9
20260504202514 27 100 6.4 17.7 0.03 0.03 0.03 84 1014.8
20260504202017 27 171 6.4 17.7 0.03 0.03 0.03 83 1014.9
20260504201535 27 133 4.8 20.9 0.03 0.03 0.03 83 1014.9
20260504201023 27 130 8.0 20.9 0.03 0.03 0.03 82 1014.9
20260504200513 28 154 12.9 20.9 0.03 0.03 0.03 81 1015.0
20260504200035 27 128 8.0 17.7 0.00 0.00 0.00 80 1014.8
20260504195517 27 97 8.0 20.9 0.00 0.00 0.00 79 1014.8
20260504195014 28 101 11.3 22.5 0.00 0.00 0.00 78 1014.9
20260504194535 28 128 11.3 22.5 0.00 0.00 0.00 75 1014.9
20260504194014 29 127 11.3 20.9 0.00 0.00 0.00 74 1014.9
20260504193517 29 153 4.8 17.7 0.00 0.00 0.00 76 1015.0
20260504193031 28 137 6.4 19.3 0.00 0.00 0.00 76 1015.1
20260504192516 28 146 6.4 19.3 0.00 0.00 0.00 76 1015.0
20260504192017 28 180 9.7 17.7 0.00 0.00 0.00 76 1015.0
20260504191534 28 156 4.8 19.3 0.00 0.00 0.00 75 1014.9
20260504191017 28 103 9.7 19.3 0.00 0.00 0.00 77 1015.1
20260504190517 28 174 0.0 19.3 0.00 0.00 0.00 79 1015.1
20260504190042 28 146 9.7 19.3 0.00 0.00 0.00 79 1015.0
20260504185516 28 0 8.0 17.7 0.00 0.00 0.00 81 1015.1
20260504185016 27 128 9.7 24.1 0.00 0.00 0.00 82 1015.1
20260504184535 27 115 6.4 24.1 0.00 0.00 0.00 83 1015.2
20260504184016 27 110 12.9 20.9 0.00 0.00 0.00 82 1015.3
20260504183517 27 161 9.7 17.7 0.00 0.00 0.00 82 1015.4
20260504183034 27 109 4.8 20.9 0.00 0.00 0.00 82 1015.4
20260504182526 28 134 8.0 22.5 0.00 0.00 0.00 79 1015.6
20260504182022 28 73 11.3 22.5 0.00 0.00 0.00 76 1015.6
20260504181540 28 131 11.3 22.5 0.00 0.00 0.00 75 1015.6
20260504181016 28 160 9.7 16.1 0.00 0.00 0.00 78 1015.6
20260504180518 28 122 9.7 16.1 0.00 0.00 0.00 78 1015.8
20260504180036 27 0 6.4 19.3 0.00 0.00 0.00 79 1015.8
20260504175516 27 102 8.0 19.3 0.00 0.00 0.00 81 1016.0
20260504175017 27 123 11.3 19.3 0.00 0.00 0.00 81 1016.2
20260504174535 27 92 8.0 16.1 0.00 0.00 0.00 82 1016.2
20260504174017 27 107 9.7 16.1 0.00 0.00 0.00 82 1016.2
20260504173518 27 94 9.7 16.1 0.00 0.00 0.00 82 1016.3
20260504173035 27 128 6.4 16.1 0.00 0.00 0.00 82 1016.2
20260504172517 27 105 8.0 19.3 0.00 0.00 0.00 83 1016.3
20260504172016 27 103 8.0 24.1 0.00 0.00 0.00 81 1016.6
20260504171535 28 120 8.0 24.1 0.00 0.00 0.00 81 1016.6
20260504171018 28 135 14.5 22.5 0.00 0.00 0.00 77 1016.7
20260504170517 28 111 14.5 22.5 0.00 0.00 0.00 74 1016.6
20260504151017 28 107 14.5 22.5 0.00 0.00 0.00 72 1017.3
20260504150516 28 155 9.7 22.5 0.00 0.00 0.00 71 1017.4
20260504141015 28 90 12.9 22.5 0.00 0.00 0.00 71 1017.0
20260504140520 28 133 9.7 22.5 0.00 0.00 0.00 72 1017.1
20260504130516 28 115 14.5 20.9 0.00 0.00 0.00 73 1017.2